Weather Roundup
Issued by NWS Chicago, IL

Home | Current Version | Previous Version | Graphics & Text | Print | Product List | Glossary On
Versions: 1 2 3 4 5 6 7 8 9 10 11 12 13 14 15 16 17 18 19 20 21 22 23 24 25 26 27 28 29 30 31 32 33 34 35 36 37 38 39 40 41 42 43 44 45 46 47 48 49 50
687
NZUS59 KLOT 221108
HRRLOT

CHICAGO AREA WEATHER ROUNDUP
NATIONAL WEATHER SERVICE CHICAGO/ROMEOVILLE IL
500 AM CST WED NOV 22 2017

NOTE: "FAIR" INDICATES FEW OR NO CLOUDS BELOW 12,000 FEET WITH NO
SIGNIFICANT WEATHER AND/OR OBSTRUCTIONS TO VISIBILITY.

* THESE STATIONS ARE NOT UNDER NWS QUALITY CONTROL. THEY ALSO MAY NOT
  REPORT WEATHER SUCH AS PRECIPITATION OR FOG.

ILZ005-006-012>014-019>023-221200-
NORTHEAST ILLINOIS

CITY           SKY/WX    TMP DP  RH WIND       PRES   REMARKS
OHARE          CLEAR     23  15  71 NW6       30.31R WCI  16
MIDWAY         CLEAR     25  14  63 NW10      30.31R WCI  15
AURORA         CLEAR     17  14  88 NW5       30.32R WCI  10
LANSING*       CLEAR     24  17  73 NW7       30.30R WCI  16
JOLIET*        CLEAR     23  18  80 NW5       30.33R WCI  17
WAUKEGAN       CLEAR     20  14  77 NW5       30.30R WCI  13
DUPAGE AIRPORT CLEAR     20  15  81 NW5       30.31R WCI  13
WHEELING       CLEAR     22  16  78 NW5       30.32R WCI  16
KANKAKEE*      CLEAR     24  17  74 NW8       30.32R WCI  14
MORRIS*        CLEAR     20  16  86 NW6       30.32S WCI  12
LEWIS AIRPORT* CLEAR     22  17  83 NW8       30.32R WCI  12
$$

WIZ051-052-058>065-066-070>072-221200-
SOUTHEAST WISCONSIN

CITY           SKY/WX    TMP DP  RH WIND       PRES   REMARKS
MILWAUKEE      CLEAR     22  14  71 NW6       30.31R WCI  14
KENOSHA*       CLEAR     20  13  74 W6        30.31R WCI  12
RACINE*        CLEAR     20  14  77 W6        30.32R WCI  12
BURLINGTON     CLEAR     20  18  89 CALM      30.31R
WAUKESHA       CLEAR     18  12  79 NW3       30.31R
WEST BEND      CLEAR     18  12  79 NW5       30.29R WCI  11
$$

INZ001>003-010>013-019-020-221200-
NORTHWEST INDIANA

CITY           SKY/WX    TMP DP  RH WIND       PRES   REMARKS
GARY*          PTCLDY    28  16  59 NW12      30.30R WCI  18
MICHIGAN CITY* NOT AVBL
RENSSELAER*    NOT AVBL
VALPARAISO     CLOUDY    30  21  69 W6        30.27R WCI  24
$$

LMZ740>746-221200-
SOUTHERN LAKE MICHIGAN

STATION/POSITION TIME  SKY/WX   TEMP WIND        PRES    VSBY
                                AIR  DIR/SP/G
                 (UTC)          (F)  (DEG/KT/KT) (MB)    (MI)
HARRISON CRIB    1040            28  330/ 18/ 19   N/A
BURNHAM HARBOR   1100            27  310/  9/ 13   N/A
CALUMET HARBOR   1042            25  290/  7/  9 1025.2R
BURNS HARBOR     1040            33  340/ 14/ 18 1025.4R
MICHIGAN CITY    1040            32  320/ 19/ 21   N/A
$$

ABBREVIATIONS USED IN REMARKS
   TC - TEMPERATURE IN CELSIUS
  WCI - WIND CHILL INDEX
   HX - HEAT INDEX
  VSB - VISIBILITY
$$




USA.gov is the U.S. government's official web portal to all federal, state and local government web resources and services.